ICEYE-X59

导读

ICEYE-X59是芬兰冰眼公司(ICEYE)于2025年11月28日发射的合成孔径雷达(SAR)遥感卫星,属于冰眼卫星系列。该卫星体积小、成本低,搭载先进X波段SAR系统,支持五种成像模式,最高可达25cm分辨率,可全天时、全天候对地观测。服务于港口监控、溢油检测、自然灾害应对等多个领域,将进一步扩充冰眼商业遥感卫星星座,提升全球高频次持续监测能力。

基本信息
目录编号:
66752
目录名称:
ICEYE-X59
国际标识:
2025-276CQ
轨道中心:
EARTH
卫星名称:
ICEYE-X59
卫星全名:
ICEYE-X59
卫星状态:
在轨 (已飞行287 天)
发射日期:
2025-11-28 UTC
国别 :
(GR)
星等 :
--
该卫星已列入 空间交会检测服务 Space Conjunction Data Service (SCDS) ,当前飞行风险评估等级: 无高风险
轨道信息
数据来源 国际轨道数据
星历时间: 2026-09-11T01:52:04+0800
13小时前
查看轨道信息
半长轴: 6940.683km
偏心率: 0.0001574
轨道倾角: 97.451°
近地点辐角 63.828°
升交点赤经 321.448°
平近点角 296.310°
近地点: 561.453km
远地点: 563.639km
周期: 95.910分钟
每日圈数: 15.014106
详细信息
使用方式:
暂无
2D轨道图
3D轨道图
轨道高度分析图
轨道倾角分析图
轨道综合分析图
查看轨道综合分析图
与全量物体交会距离演化趋势
与全量物体交会风险概率演化趋势